Skip Page Navigation
NASA JPL Caltech
NASA Logo - Jet Propulsion Laboratory + View the NASA Portal
+ Center for Near-Earth Object Studies
JPL Home Earth Solar System Stars & Galaxies Technology
JPL Solar System Dynamics
BODIES ORBITS EPHEMERIDES TOOLS PHYSICAL DATA DISCOVERY FAQ SITE MAP
JPL Small-Body Database Browser
Search: [ help ]  
3552 Don Quixote (1983 SA)
Classification: Amor [NEO]          SPK-ID: 2003552
Ephemeris | Orbit Diagram | Orbital Elements | Mission Design | Physical Parameters | Discovery Circumstances | Close-Approach Data ]

[ show orbit diagram ]
Orbital Elements at Epoch 2459200.5 (2020-Dec-17.0) TDB
Reference: JPL 267 (heliocentric ecliptic J2000)
 Element Value Uncertainty (1-sigma)   Units 
e .7089002528383115 2.7136e-08  
a 4.261578601276255 2.0414e-08 au
q 1.24054445334118 1.1615e-07 au
i 31.08885769104464 5.2247e-06 deg
node 349.9446412663697 9.3317e-06 deg
peri 316.5317604870356 9.1948e-06 deg
M 106.9014130654041 4.003e-06 deg
tp 2458246.309415995595
(2018-May-07.80941600)
3.0719e-05 TDB
period 3213.32151176918
8.80
2.3089e-05
6.321e-08
d
yr
n .1120336071823054 8.05e-10 deg/d
Q 7.28261274921133 3.4885e-08 au
  Orbit Determination Parameters
   # obs. used (total)      1345  
   data-arc span      13675 days (37.44 yr)  
   first obs. used      1983-09-10  
   last obs. used      2021-02-17  
   planetary ephem.      DE441  
   SB-pert. ephem.      SB441-N16  
   condition code      0  
   norm. resid. RMS      .46035  
   source      ORB  
   producer      Otto Matic  
   solution date      2021-Apr-12 15:15:27  

Additional Information
 Earth MOID = .332841 au 
 Jupiter MOID = .438623 au 
 T_jup = 2.314 
[ show covariance matrix ]

Ephemeris | Orbit Diagram | Orbital Elements | Mission Design | Physical Parameters | Discovery Circumstances | Close-Approach Data ]

Physical Parameter Table
Parameter Symbol Value Units Sigma Reference Notes
absolute magnitude H 12.96   n/a E2021B10  
diameter diameter 19.0 km n/a Hazards due to Comets and Asteroids (1994), Ed. T. Gehrels, pp.540-543  
rotation period rot_per 6.665 h n/a LCDB (Rev. 2020-October); Warner et al., 2009 Published Reference List:
[Skiff, B.A. (2009) Posting on CALL web site: http://www.minorplanet.info/call.html]
[Skiff, B.A. (2018) Posting on CALL web site: http://www.minorplanet.info/call.html]
[Benishek, V. (2019) Minor Planet Bull. 46, 87-90.]
[Skiff, B.A.; McLelland, K.P.; Sanborn, J.; Pravec, P.; Koehn, B.W. (2019). Minor Planet Bull. 46, 458-503.]
[Warner, B.D.; Stephens, R.D. (2019) Minor Planet Bull. 46, 27-40.]
geometric albedo albedo 0.03   n/a Hazards due to Comets and Asteroids (1994), Ed. T. Gehrels, pp.540-543  
Tholen spectral type spec_T D   n/a EAR-A-5-DDR-TAXONOMY-V4.0 used 4 color indices
SMASSII spectral type spec_B D   n/a Binzel et al. (2004) Icarus 170, 259-294  

3552 Don Quixote (1983 SA)          Discovered 1983-Sep-26 by Wild, P. at Zimmerwald
Reference: DISCOVERY.DBLast Updated: 2003-08-29

[ hide close-approach data ]
Close-Approach Data   ...sorted by Date/Time (TDB)
Date/Time (TDB) Time Uncertainty
(days_HH:MM)
Body Nominal Distance (au) Minimum Distance (au) Maximum Distance (au) V-relative (km/s) V-infinity (km/s) JD (TDB) Time Uncertainty (minutes) Semi-major axis (km) Semi-minor axis (km) range-LOV angle (deg) N-sigma BP Orbit Ref. Reference Modified
1904-Sep-07 09:30 < 00:01 Earth 0.424906499376061 0.424898087896529 0.424914911081619 21.2225453333787 21.2222498557969 2416730.896006321 0.550006956705082 644.310827881528 16.3903596949725 49.4045926780352 2948543.03447089 T 267 CATAB v2.0f-lin.ifort 2021-Apr-12 15:15:39 2021-Apr-12 15:15
1913-Aug-31 08:28 < 00:01 Earth 0.318106999875485 0.318106512126838 0.318107487796401 17.5612785274348 17.5608015598138 2420010.852786398 0.311352703309163 495.009234743287 16.182327203288 87.8966013338356 3108620.24444262 T 267 CATAB v2.0f-lin.ifort 2021-Apr-12 15:15:39 2021-Apr-12 15:15
1920-Dec-29 20:37 < 00:01 Jupiter 0.602016919770875 0.60201539491399 0.602018444629659 11.8518832053914 11.7325694682249 2422688.358944094 0.385378470050851 108.849443114722 55.0417633104284 -56.3057282205517 1300151.4992824 T 267 CATAB v2.0f-lin.ifort 2021-Apr-12 15:15:39 2021-Apr-12 15:15
1922-Sep-01 23:06 < 00:01 Earth 0.300021065812348 0.300020483841222 0.300021647934813 18.4408865966345 18.4404049988491 2423299.462555582 0.258505349976685 398.004130678806 15.4508115145905 86.4585012574592 2988198.2133874 T 267 CATAB v2.0f-lin.ifort 2021-Apr-12 15:15:39 2021-Apr-12 15:15
1956-Mar-17 04:41 < 00:01 Jupiter 1.77299850254392 1.77299642944496 1.77300057564297 15.1911426952707 15.1596618509595 2435549.695337659 0.305664174758255 106.163309952657 51.8938192964576 -15.5035570529742 2114055.53968508 T 267 CATAB v2.0f-lin.ifort 2021-Apr-12 15:15:39 2021-Apr-12 15:15
1957-Aug-30 04:24 < 00:01 Earth 0.305917229937759 0.305915539852954 0.305918920150793 17.6267600354714 17.6262659045703 2436080.683139028 0.18368303697221 329.141263326003 16.0725027850276 -75.4235912875586 2893457.61929701 T 267 CATAB v2.0f-lin.ifort 2021-Apr-12 15:15:39 2021-Apr-12 15:15
1983-Aug-30 02:05 < 00:01 Earth 0.317876198555089 0.317875223919161 0.317877173225221 17.551490718409 17.5510131382827 2445576.586804240 0.096615603604589 181.167690425026 16.2766443150365 -75.2967532499593 2969946.11952267 T 267 CATAB v2.0f-lin.ifort 2021-Apr-12 15:15:39 2021-Apr-12 15:15
2016-Jan-06 11:49 < 00:01 Jupiter 1.60327417358737 1.60327292317929 1.60327542399571 8.21607120152139 8.15151581391618 2457393.992306583 0.457765632085418 76.627596047893 40.6131672208065 -43.131654648795 4971246.20520999 T 267 CATAB v2.0f-lin.ifort 2021-Apr-12 15:15:39 2021-Apr-12 15:15
2051-Aug-17 17:26 < 00:01 Jupiter 0.795887112125483 0.79588576582114 0.795888458430233 9.51186315688199 9.39931069757875 2470401.226699221 0.313868485174373 82.7550306820915 54.5681437888819 50.5193703891062 2136630.27488556 T 267 CATAB v2.0f-lin.ifort 2021-Apr-12 15:15:39 2021-Apr-12 15:15
2053-Aug-26 04:18 < 00:01 Earth 0.449351866624149 0.449349459687888 0.44935427366654 16.6696173203557 16.6692616032004 2471140.679129617 0.0592077125600374 369.259119014273 19.9519364298388 -71.2767147432129 3339535.78852136 T 267 CATAB v2.0f-lin.ifort 2021-Apr-12 15:15:39 2021-Apr-12 15:15
2062-Aug-27 03:09 < 00:01 Earth 0.425265189200244 0.425263730479839 0.425266648098347 17.1583524963925 17.1579873377716 2474428.631356490 0.0894174747834619 458.042356313846 20.7360384843475 -81.2345895192082 3142166.6457227 T 267 CATAB v2.0f-lin.ifort 2021-Apr-12 15:15:39 2021-Apr-12 15:15
2071-Aug-29 06:39 < 00:01 Earth 0.425263575051557 0.425261326059702 0.42526582432612 18.5354289010028 18.5350908708114 2477717.777384446 0.183101246771183 568.39395903583 21.6331806582588 78.8284053258034 2941047.02718206 T 267 CATAB v2.0f-lin.ifort 2021-Apr-12 15:15:39 2021-Apr-12 15:15
2080-Aug-28 04:45 < 00:01 Earth 0.420642805398887 0.420640377562294 0.420645233758145 18.3993981387056 18.3990538685803 2481004.697977276 0.237884995875503 761.014444671004 21.4843794234291 80.9884188378715 2949397.46714607 T 267 CATAB v2.0f-lin.ifort 2021-Apr-12 15:15:39 2021-Apr-12 15:15
2087-Mar-07 16:31 < 00:01 Jupiter 1.64512763106791 1.6451237520254 1.64513151011127 8.14729972253803 8.0838578698528 2483387.187907141 0.757661307468031 202.113784999993 25.7490305495653 16.3141290090478 3647424.5257851 T 267 CATAB v2.0f-lin.ifort 2021-Apr-12 15:15:39 2021-Apr-12 15:15
2089-Aug-26 04:25 < 00:01 Earth 0.451263086594554 0.451262154868941 0.451264018963016 17.362813417843 17.3624733491111 2484289.684069895 0.153276998387065 964.439238663829 21.9305352686687 -87.5638974406857 3151338.11286889 T 267 CATAB v2.0f-lin.ifort 2021-Apr-12 15:15:39 2021-Apr-12 15:15
2169-Dec-06 11:26 < 00:01 Jupiter 0.828774038645348 0.828768055258961 0.828780022034232 12.6055156960993 12.5241761683546 2513610.976651823 0.882907396440976 307.064515463503 23.6609769627556 -14.2446019229453 1183275.87915612 T 267 CATAB v2.0f-lin.ifort 2021-Apr-12 15:15:39 2021-Apr-12 15:15
Ephemeris | Orbit Diagram | Orbital Elements | Mission Design | Physical Parameters | Discovery Circumstances | Close-Approach Data ]
ABOUT SSD CREDITS/AWARDS PRIVACY/COPYRIGHT GLOSSARY LINKS
FirstGov 2021-May-15 05:35 UT
(server date/time)  
NASA Home Page
Site Manager:   Ryan S. Park
Webmaster  Alan B. Chamberlin